Weather History for KPHP - August, 2013

Change the Weather History Date:

Thursday, August 29, 2013

  Actual Average Record
Temperature  
Mean Temperature 82 °F 70 °F  
Max Temperature 99 °F 85 °F 111 °F (2012)
Min Temperature 64 °F 54 °F 44 °F (1976)
Degree Days  
Heating Degree Days 0 1  
Month to date heating degree days 0 9  
Since 1 June heating degree days 67 80  
Since 1 July heating degree days 3 17  
Cooling Degree Days 17 6  
Month to date cooling degree days 259 267  
Year to date cooling degree days 740 722  
Since 1 June cooling degree days 719 695  
Growing Degree Days 31 (Base 50)    
Moisture  
Dew Point 61 °F    
Average Humidity 60    
Maximum Humidity 93    
Minimum Humidity 27    
Precipitation  
Precipitation 0.00 in 0.05 in 0.73 in (1971)
Month to date precipitation 1.26 1.40  
Year to date precipitation 10.41 13.28  
Sea Level Pressure  
Sea Level Pressure 29.87 in    
Wind  
Wind Speed 7 mph (North)    
Max Wind Speed 20 mph    
Max Gust Speed 24 mph    
Visibility 10 miles    
Events      
T = Trace of Precipitation, MM = Missing Value Source: NWS Daily Summary

Daily Weather History Graph

Daily Weather History Graph

Search for Another Location

Airport or City:

Trip Planner

Search our weather history database for the weather conditions in past years. The results will help you decide how hot, cold, wet, or windy it might be!

Date:

Astronomy

Aug. 29, 2013 Rise Set
Actual Time 6:06 AM MDT 7:27 PM MDT
Civil Twilight 5:36 AM MDT 7:56 PM MDT
Nautical Twilight 5:00 AM MDT 8:32 PM MDT
Astronomical Twilight 4:21 AM MDT 9:11 PM MDT
Moon No Moon Rise 3:03 PM MDT (8/29)
Length of Visible Light 14h 20m
Length of Day
13h 20m
Last Quarter, 37% of the Moon is Illuminated
Aug 29
Last Quarter
Sep 5
New
Sep 12
First Quarter
Sep 19
Full
Sep 26
Last Quarter

Hourly Weather History & Observations

Time (MDT) Temp. Heat Index Dew Point Humidity Pressure Visibility Wind Dir Wind Speed Gust Speed Precip Events Conditions
12:55 AM 73.9 °F - 64.9 °F 73% 29.83 in 10.0 mi Calm Calm - N/A   Clear
1:55 AM 73.0 °F - 62.1 °F 68% 29.81 in 10.0 mi SSE 6.9 mph - N/A   Clear
2:55 AM 71.1 °F - 63.0 °F 75% 29.83 in 10.0 mi NW 5.8 mph - N/A   Clear
3:55 AM 69.1 °F - 63.0 °F 81% 29.82 in 10.0 mi Calm Calm - N/A   Clear
4:55 AM 66.9 °F - 63.0 °F 87% 29.83 in 10.0 mi Calm Calm - N/A   Clear
5:55 AM 64.9 °F - 62.1 °F 90% 29.84 in 10.0 mi WNW 3.5 mph - N/A   Clear
6:55 AM 64.9 °F - 62.1 °F 90% 29.86 in 10.0 mi SSW 3.5 mph - N/A   Clear
7:55 AM 75.0 °F - 64.0 °F 69% 29.86 in 10.0 mi Calm Calm - N/A   Clear
8:55 AM 82.0 °F 82.4 °F 60.1 °F 47% 29.86 in 10.0 mi West 5.8 mph - N/A   Clear
9:55 AM 91.9 °F 90.3 °F 55.9 °F 30% 29.86 in 10.0 mi NW 11.5 mph - N/A   Clear
10:55 AM 93.0 °F 92.3 °F 59.0 °F 32% 29.87 in 10.0 mi North 10.4 mph 19.6 mph N/A   Clear
11:55 AM 95.0 °F 95.2 °F 61.0 °F 32% 29.86 in 10.0 mi North 5.8 mph - N/A   Clear
12:55 PM 97.0 °F 97.4 °F 61.0 °F 30% 29.86 in 10.0 mi NNW 12.7 mph 20.7 mph N/A   Clear
1:55 PM 97.0 °F 99.3 °F 64.0 °F 34% 29.86 in 10.0 mi North 15.0 mph 24.2 mph N/A   Clear
2:55 PM 98.1 °F 99.6 °F 63.0 °F 31% 29.86 in 10.0 mi North 15.0 mph 20.7 mph N/A   Clear
3:55 PM 98.1 °F 98.6 °F 61.0 °F 29% 29.86 in 10.0 mi NNW 10.4 mph 18.4 mph N/A   Clear
4:55 PM 97.0 °F 96.9 °F 60.1 °F 29% 29.87 in 10.0 mi North 10.4 mph 17.3 mph N/A   Clear
5:55 PM 96.1 °F 95.2 °F 57.9 °F 28% 29.88 in 10.0 mi NNE 9.2 mph - N/A   Clear
6:55 PM 91.0 °F 90.2 °F 59.0 °F 34% 29.89 in 10.0 mi NNE 8.1 mph - N/A   Clear
7:55 PM 82.9 °F 82.8 °F 59.0 °F 44% 29.90 in 10.0 mi North 10.4 mph - N/A   Clear
8:55 PM 80.1 °F 81.1 °F 61.0 °F 52% 29.92 in 10.0 mi NNE 10.4 mph - N/A   Clear
9:55 PM 78.1 °F - 62.1 °F 58% 29.92 in 10.0 mi NNE 8.1 mph - N/A   Clear
10:55 PM 75.0 °F - 62.1 °F 64% 29.93 in 10.0 mi ESE 3.5 mph - N/A   Clear
11:55 PM 73.0 °F - 61.0 °F 66% 29.94 in 10.0 mi NE 3.5 mph - N/A   Clear